Location: George Washington National Forest Helicopter Landing Site
(38.6463°N, 79.0851°W)
Time: 15:57:20
(UTC-04:00)

Tiros 1 despin weight - Pass Details

Date: 19 August 2019
Orbit: 595 x 642 km, 48.2° (Epoch: 15 September)

Event Time Altitude Azimuth Distance (km) Brightness Sun altitude
Rises 01:57:13 0° 238° (WSW) 2,829 - -37.8°
Reaches altitude 10° 01:59:29 10° 240° (WSW) 1,935 - -37.7°
Maximum altitude 02:03:56 82° 328° (NNW) 615 - -37.5°
Drops below altitude 10° 02:08:28 10° 56° (ENE) 1,971 - -37.3°
Exits shadow 02:08:42 - 56° (ENE) 2,060 ? -37.3°
Sets 02:10:48 0° 58° (ENE) 2,887 ? -37.2°
